This is the latest recevied weather packets stored in our database for station/object VK2ZAZ-10. If no packets are shown the sender has not sent any weather packets the latest 10 day(s).
| Time | Temp. | Humidity | Pressure | Rain* | Wind** | Luminosity | Snow |
|---|---|---|---|---|---|---|---|
| 1778031865 | 20° C | 51% | 1021.5 hPa | - | - | - | - |
| 1778030064 | 19.44° C | 50% | 1022.1 hPa | - | - | - | - |
| 1778028264 | 18.89° C | 49% | 1022.7 hPa | - | - | - | - |
| 1778026464 | 18.89° C | 49% | 1023.2 hPa | - | - | - | - |
| 1778024665 | 18.33° C | 50% | 1023.5 hPa | - | - | - | - |
| 1778022864 | 17.22° C | 51% | 1023.7 hPa | - | - | - | - |
| 1778021064 | 16.11° C | 51% | 1024.1 hPa | - | - | - | - |
| 1778019264 | 15.56° C | 52% | 1024 hPa | - | - | - | - |
| 1778017464 | 15° C | 52% | 1023.7 hPa | - | - | - | - |
| 1778015664 | 15° C | 51% | 1023.7 hPa | - | - | - | - |
| 1778013864 | 15° C | 51% | 1023.6 hPa | - | - | - | - |
| 1778012065 | 15° C | 51% | 1023.5 hPa | - | - | - | - |
| 1778010264 | 15.56° C | 51% | 1023.6 hPa | - | - | - | - |
| 1778008465 | 15.56° C | 51% | 1023.4 hPa | - | - | - | - |
| 1778006664 | 15.56° C | 51% | 1023.3 hPa | - | - | - | - |
| 1778004864 | 16.11° C | 51% | 1023.2 hPa | - | - | - | - |
| 1778003063 | 16.11° C | 51% | 1023 hPa | - | - | - | - |
| 1778001263 | 16.11° C | 50% | 1023.1 hPa | - | - | - | - |
| 1777999463 | 16.67° C | 50% | 1023.4 hPa | - | - | - | - |
| 1777997663 | 16.67° C | 50% | 1023.5 hPa | - | - | - | - |
| 1777995863 | 17.22° C | 50% | 1023.8 hPa | - | - | - | - |
| 1777994063 | 17.22° C | 50% | 1023.9 hPa | - | - | - | - |
| 1777992263 | 17.22° C | 50% | 1024 hPa | - | - | - | - |
| 1777990463 | 17.78° C | 49% | 1024.1 hPa | - | - | - | - |
| 1777988663 | 17.78° C | 49% | 1024.1 hPa | - | - | - | - |
* Rain since midnight (hover to see other rain measurements)
** Current wind speed in m/s (hover to see current wind gust speed)